INTELSAT NEW DAWN

Last updated on Sept. 29, 2020, 5:50 a.m. UTC

1 37392U 11016A   20272.85710292  .00000135  00000-0  00000-0 0  9999
2 37392   0.0149 184.4710 0000791 359.3863 165.6040  1.00271632 32378
UTC
Height (km)
Latitude
Longitude
Inclination
Orbital Period
UTC large
Height (km)
Speed (km/s)
/
Latitude / Longitude
Inclination (degrees)
Orbital Period (minutes)
Azimuth
Elevation
Range (km)
Doppler Factor
iOS Compass Heading
iOS Angle

Next 30 passes for location: Hong Kong

Rise time Rise Azimuth (degrees) Set time Set Azimuth (degrees) Duration Max altitude (degrees)

No matching passes for this satellites